Regional Weather Roundup
Issued by NWS

Home | Current Version | Previous Version | Text Only | Print | Product List | Glossary Off
Versions: 1 2 3 4 5 6 7 8 9 10 11 12 13 14 15 16 17 18 19 20 21 22 23 24 25 26 27 28 29 30 31 32 33 34 35 36 37 38 39 40 41 42 43 44 45 46 47 48 49 50

000
ASUS43 KMPX 301210
RWRMN
WEATHER ROUNDUP FOR MINNESOTA
NATIONAL WEATHER SERVICE TWIN CITIES/CHANHASSEN MN
700 AM CDT MON MAR 30 2015


NOTE: "FAIR" INDICATES FEW OR NO CLOUDS BELOW 12,000 FEET WITH NO
SIGNIFICANT WEATHER AND/OR OBSTRUCTIONS TO VISIBILITY. N/A MEANS
CURRENT SKY AND/OR WEATHER CONDITIONS ARE NOT AVAILABLE.

MNZ060>063-068>070-301300-
   Twin Cities Metro

CITY           SKY/WX    TMP DP  RH WIND       PRES   REMARKS
TWIN CITIES    MOCLDY    37  27  67 SW3       29.98R
6HR MIN TEMP:  36; 6HR MAX TEMP:  43;

ST PAUL        PTCLDY    36  27  69 W3        29.99R
CRYSTAL        MOCLDY    37  27  67 SW7       29.96R
BLAINE         PTCLDY    34  28  80 CALM      29.96S
LAKEVILLE      PTCLDY    36  27  69 W5        29.98S
EDEN PRAIRIE   MOCLDY    34  27  75 SW5       29.97R WCI  30
6HR MIN TEMP:  34; 6HR MAX TEMP:  39;

SOUTH ST PAUL  PTCLDY    38  27  66 W3        29.97R
LAKE ELMO      FAIR      32  28  86 W3        29.97S
$$
MNZ001>005-007-008-013>017-022>024-027-028-301300-
   Northwest Minnesota

CITY           SKY/WX    TMP DP  RH WIND       PRES   REMARKS
BEMIDJI        PTCLDY    28  26  90 CALM      29.90R
HALLOCK        CLOUDY    34  30  86 S3        29.88R
ROSEAU         FAIR      30  27  86 S5        29.87S WCI  25
WARROAD        PTCLDY    30  27  86 S5        29.87S WCI  25
THIEF RVR FALL CLOUDY    32  28  86 CALM      29.89F
CROOKSTON      CLOUDY    32  28  86 SE7       29.89F WCI  26
FOSSTON        CLOUDY    30  28  93 CALM      29.90F
DETROIT LAKES  CLOUDY    34  30  86 SE3       29.91F
MOORHEAD       CLOUDY    36  34  93 SE5       29.90F
PARK RAPIDS    CLOUDY    35  28  75 CALM      29.90S
MAHNOMEN       CLOUDY    32  30  92 S6        29.89F WCI  27
$$
MNZ006-009>011-018-025>026-301300-
   North Central Minnesota

CITY           SKY/WX    TMP DP  RH WIND       PRES   REMARKS
BAUDETTE       CLEAR     26  23  88 CALM      29.87R
FLAG ISLAND    CLEAR     30  25  80 CALM      29.86S
INTL FALLS     CLEAR     23  20  88 CALM      29.88R
6HR MIN TEMP:  23; 6HR MAX TEMP:  35;

WASKISH        PTCLDY    27  25  93 CALM      29.89S
BIG FORK       CLEAR     27  25  93 CALM      29.90R
LONGVILLE      MOCLDY    25  23  93 CALM      29.91S
GRAND RAPIDS   CLEAR     28  23  80 CALM      29.90S
CRANE LAKE     CLEAR     21  21 100 CALM      29.90R
ORR            CLEAR     27  21  80 CALM      29.86S
COOK           CLEAR     27  23  86 CALM      29.89R
WALKER         FAIR      27  24  91 CALM      29.90S
$$
MNZ012-019>021-037-301300-
   Northeast Minnesota

CITY           SKY/WX    TMP DP  RH WIND       PRES   REMARKS
DULUTH         CLEAR     34  25  69 NW9       29.88R WCI  27
6HR MIN TEMP:  34; 6HR MAX TEMP:  38;

ELY            CLEAR     27  23  86 W5        29.87R WCI  21
HIBBING        CLEAR     23  19  85 CALM      29.89R
EVELETH        CLEAR     28  23  80 SW5       29.90R WCI  23
DULUTH HARBOR  CLEAR     34  27  75 CALM      29.93R
TWO HARBORS    CLEAR     36  27  69 S5        29.86R
SILVER BAY     CLEAR     34  25  69 SE3       29.85R
GRAND MARAIS     N/A     33  25  72 CALM      29.85R
G MARAIS ARPRT CLEAR     27  21  80 NW10G17   29.79R WCI  17
$$
MNZ029>031-032-039>041-046>048-054>057-064-301300-
   West Central Minnesota

CITY           SKY/WX    TMP DP  RH WIND       PRES   REMARKS
FERGUS FALLS   CLOUDY    34  27  75 SE6       29.94S WCI  29
WHEATON        CLOUDY    34  28  80 SE3       29.93F
MORRIS         CLOUDY    32  28  86 SE3       29.92F
ALEXANDRIA     CLOUDY    34  28  79 W3        29.94S
ELBOW LAKE     FAIR      32  28  83 SE5       29.92S WCI  27
WADENA         CLOUDY    34  28  80 CALM      29.92R
GLENWOOD       PTCLDY    30  27  86 SW3       29.94F
APPLETON         N/A     34  28  80 SE3       29.93F
BENSON         MOCLDY    34  27  75 CALM      29.94F
ORTONVILLE     MOCLDY    36  27  69 CALM      29.92S
MADISON        CLOUDY    41  27  56 S3        29.93F
WILLMAR        FAIR      32  27  80 CALM      29.97S
$$
MNZ033>034-036-042>043-049>051-058-059-301300-
   Central Minnesota

CITY           SKY/WX    TMP DP  RH WIND       PRES   REMARKS
ST CLOUD       CLOUDY    31  28  89 S3        29.94S
6HR MIN TEMP:  28; 6HR MAX TEMP:  37;

SAUK CENTRE    CLOUDY    33  28  82 CALM      29.94S
PAYNESVILLE    PTCLDY    30  26  84 SW5       29.95F WCI  25
AITKIN         MOCLDY    30  25  80 CALM      29.91S
PINE RIVER     PTCLDY    28  27  93 CALM      29.95S
BRAINERD       PTCLDY    29  25  85 S3        29.92F
STAPLES        RAIN      36  27  69 CALM      29.92S
LONG PRAIRIE   CLOUDY    32  30  93 CALM      29.93S
LITTLE FALLS   MOCLDY    30  28  93 CALM      29.93F
LITCHFIELD     PTCLDY    39  27  60 CALM      29.96F
BUFFALO        CLOUDY    34  28  80 SW5       29.97S WCI  30
MAPLE LAKE     CLOUDY    37  30  78 SW6       29.97S
$$
MNZ037-044-045-052-053-301300-
   East Central Minnesota

CITY           SKY/WX    TMP DP  RH WIND       PRES   REMARKS
PRINCETON      MOCLDY    30  27  86 CALM      29.96R
MORA           MOCLDY    28  23  80 CALM      29.96R
CAMBRIDGE      MOCLDY    32  25  74 CALM      29.94R
RUSH CITY      PTCLDY    33  27  77 CALM      29.95R
MOOSE LAKE     PTCLDY    28  27  93 CALM      29.91R
HINCKLEY       FAIR      30  27  86 SW5       29.94R WCI  25
CLOQUET        CLEAR     30  25  80 W8        29.90R WCI  23
MCGREGOR       PTCLDY    28  25  86 CALM      29.92S
$$
MNZ071>073-080-081-089-090-097-098-301300-
   Southwest Minnesota

CITY           SKY/WX    TMP DP  RH WIND       PRES   REMARKS
MONTEVIDEO     MOCLDY    34  27  75 SE6       29.95F WCI  29
GRANITE FALLS  CLOUDY    35  26  69 CALM      29.97F
CANBY          PTCLDY    45  25  45 SW9       29.94F
MARSHALL       MOCLDY    43  21  42 SW15      29.96F
REDWOOD FALLS  MOCLDY    38  25  59 CALM      29.96F
OLIVIA         PTCLDY    30  27  86 CALM      29.96F
PIPESTONE      MOCLDY    37  23  56 S6        29.98F
WINDOM         MOCLDY    39  23  52 CALM      30.00F
WORTHINGTON    MOCLDY    39  19  45 SW14      30.02F
JACKSON        MOCLDY    37  23  56 SW7       30.02S
TRACY          MOCLDY    42  25  51 SW13      29.98F
SLAYTON        CLOUDY    37  22  54 CALM      30.00F
$$
MNZ065>067-074>077-082>085-091>093-301300-
   South Central Minnesota

CITY           SKY/WX    TMP DP  RH WIND       PRES   REMARKS
MANKATO        FAIR      37  25  60 W12       29.99S
NEW ULM        MOCLDY    34  25  69 SW3       29.99S
ST JAMES       CLOUDY    41  25  52 SW10      30.00F
FAIRMONT       MOCLDY    39  23  52 SW13      30.01S
GLENCOE        PTCLDY    35  31  83 SW3       29.98R
FARIBAULT      CLEAR     34  27  75 CALM      29.99S
OWATONNA       CLEAR     36  27  69 SW9       29.99R
WASECA         CLEAR     32  27  80 SW7       30.01R WCI  26
ALBERT LEA     PTCLDY    41  27  56 SW12G20   30.00R
$$
MNZ078>079-086>088-094>096-301300-
   Southeast Minnesota

CITY           SKY/WX    TMP DP  RH WIND       PRES   REMARKS
ROCHESTER      CLEAR     35  27  72 W10       30.00R WCI  27
6HR MIN TEMP:  34; 6HR MAX TEMP:  37;

RED WING       CLEAR     30  27  86 CALM      29.98R
STANTON        MOCLDY    34  29  80 SW5       29.98R WCI  30
DODGE CENTER   PTCLDY    34  28  80 W8        29.99R WCI  27
WINONA         PTCLDY    32  30  93 CALM      30.00R
AUSTIN         CLEAR     37  27  65 W10       30.01R
PRESTON        CLEAR     35  26  71 SW10      30.00R WCI  27
$$
ABBREVIATIONS USED IN REMARKS
   TC - TEMPERATURES IN CELSIUS
  WCI - WIND CHILL INDEX
   HX - HEAT INDEX
  VSB - VISIBILITY
$$



USA.gov is the U.S. government's official web portal to all federal, state and local government web resources and services.